| time (UTC) | temp C | wind direction | speed KPH | gust KPH | rain 1hr cm | rain 24hr cm | rain mn cm | humidity % | barometer mb |
| 20260503230415 | 15 | 181 | 9.7 | 14.5 | 0.00 | 0.00 | 0.00 | 56 | 1009.2 |
| 20260503225914 | 15 | 173 | 9.7 | 16.1 | 0.00 | 0.00 | 0.00 | 55 | 1008.9 |
| 20260503225409 | 15 | 204 | 8.0 | 16.1 | 0.00 | 0.00 | 0.00 | 55 | 1009.2 |
| 20260503224906 | 15 | 230 | 11.3 | 25.7 | 0.00 | 0.00 | 0.00 | 54 | 1009.3 |
| 20260503224403 | 15 | 199 | 8.0 | 20.9 | 0.00 | 0.00 | 0.00 | 55 | 1009.5 |
| 20260503223900 | 15 | 213 | 14.5 | 17.7 | 0.00 | 0.00 | 0.00 | 53 | 1009.8 |
| 20260503223358 | 15 | 205 | 11.3 | 16.1 | 0.00 | 0.00 | 0.00 | 54 | 1009.7 |
| 20260503222853 | 15 | 218 | 14.5 | 24.1 | 0.00 | 0.00 | 0.00 | 53 | 1009.6 |
| 20260503222352 | 15 | 216 | 12.9 | 20.9 | 0.00 | 0.00 | 0.00 | 51 | 1009.6 |
| 20260503221850 | 15 | 189 | 6.4 | 16.1 | 0.00 | 0.00 | 0.00 | 52 | 1009.3 |
| 20260503221348 | 15 | 222 | 22.5 | 25.7 | 0.00 | 0.00 | 0.00 | 50 | 1009.6 |
| 20260503220844 | 15 | 216 | 14.5 | 25.7 | 0.00 | 0.00 | 0.00 | 50 | 1009.6 |
| 20260503220341 | 15 | 212 | 12.9 | 25.7 | 0.00 | 0.00 | 0.00 | 50 | 1009.6 |
| 20260503215838 | 15 | 222 | 8.0 | 12.9 | 0.00 | 0.00 | 0.00 | 51 | 1009.8 |
| 20260503215335 | 15 | 205 | 1.6 | 20.9 | 0.00 | 0.00 | 0.00 | 52 | 1009.7 |
| 20260503214832 | 15 | 191 | 11.3 | 17.7 | 0.00 | 0.00 | 0.00 | 50 | 1009.6 |
| 20260503214330 | 15 | 210 | 16.1 | 17.7 | 0.00 | 0.00 | 0.00 | 50 | 1009.7 |
| 20260503213827 | 15 | 196 | 17.7 | 27.4 | 0.00 | 0.00 | 0.00 | 50 | 1009.5 |
| 20260503213325 | 15 | 200 | 19.3 | 25.7 | 0.00 | 0.00 | 0.00 | 51 | 1009.6 |
| 20260503212821 | 15 | 211 | 19.3 | 25.7 | 0.00 | 0.00 | 0.00 | 51 | 1009.7 |
| 20260503212319 | 15 | 192 | 12.9 | 20.9 | 0.00 | 0.00 | 0.00 | 51 | 1009.6 |
| 20260503211816 | 16 | 220 | 14.5 | 20.9 | 0.00 | 0.00 | 0.00 | 50 | 1010.2 |
| 20260503211313 | 15 | 216 | 32.2 | 35.4 | 0.00 | 0.00 | 0.00 | 49 | 1010.2 |
| 20260503210813 | 15 | 204 | 14.5 | 33.8 | 0.00 | 0.00 | 0.00 | 51 | 1010.5 |
| 20260503210311 | 15 | 201 | 14.5 | 27.4 | 0.00 | 0.00 | 0.00 | 51 | 1010.4 |
| 20260503205806 | 15 | 207 | 25.7 | 33.8 | 0.00 | 0.00 | 0.00 | 47 | 1010.5 |
| 20260503205304 | 15 | 192 | 20.9 | 30.6 | 0.00 | 0.00 | 0.00 | 48 | 1010.6 |
| 20260503204759 | 15 | 181 | 22.5 | 30.6 | 0.00 | 0.00 | 0.00 | 48 | 1010.8 |
| 20260503204257 | 16 | 226 | 16.1 | 27.4 | 0.00 | 0.00 | 0.00 | 49 | 1010.7 |
| 20260503203754 | 16 | 181 | 8.0 | 20.9 | 0.00 | 0.00 | 0.00 | 50 | 1011.1 |
| 20260503203251 | 16 | 209 | 8.0 | 27.4 | 0.00 | 0.00 | 0.00 | 50 | 1010.9 |
| 20260503202748 | 16 | 208 | 20.9 | 25.7 | 0.00 | 0.00 | 0.00 | 48 | 1011.0 |
| 20260503202246 | 16 | 228 | 17.7 | 29.0 | 0.00 | 0.00 | 0.00 | 48 | 1011.2 |
| 20260503201744 | 16 | 221 | 14.5 | 29.0 | 0.00 | 0.00 | 0.00 | 47 | 1011.5 |
| 20260503201241 | 16 | 232 | 17.7 | 24.1 | 0.00 | 0.00 | 0.00 | 46 | 1011.8 |
| 20260503200737 | 16 | 224 | 29.0 | 35.4 | 0.00 | 0.00 | 0.00 | 46 | 1011.8 |
| 20260503200233 | 16 | 206 | 24.1 | 29.0 | 0.00 | 0.00 | 0.00 | 46 | 1011.9 |
| 20260503195731 | 16 | 210 | 20.9 | 27.4 | 0.00 | 0.00 | 0.00 | 46 | 1011.9 |
| 20260503195227 | 16 | 199 | 16.1 | 24.1 | 0.00 | 0.00 | 0.00 | 46 | 1012.5 |
| 20260503194726 | 15 | 247 | 14.5 | 29.0 | 0.00 | 0.00 | 0.00 | 46 | 1012.6 |
| 20260503194221 | 15 | 225 | 14.5 | 35.4 | 0.00 | 0.00 | 0.00 | 47 | 1012.8 |
| 20260503193717 | 15 | 256 | 16.1 | 22.5 | 0.00 | 0.00 | 0.00 | 46 | 1013.0 |
| 20260503193213 | 15 | 230 | 14.5 | 22.5 | 0.00 | 0.00 | 0.00 | 46 | 1013.2 |
| 20260503192709 | 16 | 212 | 19.3 | 29.0 | 0.00 | 0.00 | 0.00 | 48 | 1013.2 |
| 20260503192204 | 16 | 226 | 16.1 | 22.5 | 0.00 | 0.00 | 0.00 | 46 | 1013.4 |
| 20260503191701 | 16 | 221 | 19.3 | 25.7 | 0.00 | 0.00 | 0.00 | 43 | 1013.3 |
| 20260503191158 | 16 | 214 | 27.4 | 33.8 | 0.00 | 0.00 | 0.00 | 45 | 1013.4 |
| 20260503190655 | 15 | 212 | 11.3 | 22.5 | 0.00 | 0.00 | 0.00 | 45 | 1013.2 |
| 20260503190152 | 15 | 205 | 16.1 | 30.6 | 0.00 | 0.00 | 0.00 | 45 | 1013.2 |
| 20260503185649 | 15 | 217 | 22.5 | 27.4 | 0.00 | 0.00 | 0.00 | 47 | 1013.6 |
| 20260503185144 | 15 | 266 | 14.5 | 17.7 | 0.00 | 0.00 | 0.00 | 46 | 1013.6 |
| 20260503184639 | 15 | 215 | 29.0 | 37.0 | 0.00 | 0.00 | 0.00 | 43 | 1013.6 |
| 20260503184136 | 16 | 212 | 11.3 | 24.1 | 0.00 | 0.00 | 0.00 | 45 | 1013.2 |
| 20260503183632 | 16 | 238 | 24.1 | 33.8 | 0.00 | 0.00 | 0.00 | 48 | 1013.2 |
| 20260503183130 | 16 | 249 | 16.1 | 30.6 | 0.00 | 0.00 | 0.00 | 47 | 1013.7 |
| 20260503182628 | 15 | 228 | 17.7 | 27.4 | 0.00 | 0.00 | 0.00 | 47 | 1013.4 |
| 20260503182126 | 15 | 195 | 14.5 | 24.1 | 0.00 | 0.00 | 0.00 | 48 | 1013.4 |
| 20260503181622 | 16 | 196 | 29.0 | 38.6 | 0.00 | 0.00 | 0.00 | 46 | 1013.7 |
| 20260503181119 | 16 | 261 | 17.7 | 30.6 | 0.00 | 0.00 | 0.00 | 46 | 1014.0 |
| 20260503180616 | 16 | 214 | 14.5 | 24.1 | 0.00 | 0.00 | 0.00 | 50 | 1014.0 |
| 20260503180114 | 16 | 201 | 25.7 | 29.0 | 0.00 | 0.00 | 0.00 | 48 | 1014.1 |
| 20260503175611 | 15 | 221 | 20.9 | 30.6 | 0.00 | 0.00 | 0.00 | 50 | 1014.4 |
| 20260503175108 | 16 | 255 | 17.7 | 33.8 | 0.00 | 0.00 | 0.00 | 49 | 1014.5 |
| 20260503174605 | 16 | 191 | 17.7 | 27.4 | 0.00 | 0.00 | 0.00 | 48 | 1014.7 |
| 20260503174101 | 15 | 232 | 11.3 | 20.9 | 0.00 | 0.00 | 0.00 | 49 | 1014.8 |
| 20260503173556 | 16 | 216 | 25.7 | 33.8 | 0.00 | 0.00 | 0.00 | 50 | 1014.8 |
| 20260503173053 | 15 | 239 | 12.9 | 22.5 | 0.00 | 0.00 | 0.00 | 49 | 1014.9 |
| 20260503172550 | 15 | 222 | 14.5 | 27.4 | 0.00 | 0.00 | 0.00 | 51 | 1015.2 |
| 20260503172048 | 15 | 155 | 16.1 | 24.1 | 0.00 | 0.00 | 0.00 | 50 | 1015.4 |
| 20260503171544 | 15 | 235 | 12.9 | 17.7 | 0.00 | 0.00 | 0.00 | 52 | 1015.4 |
| 20260503171041 | 15 | 214 | 19.3 | 37.0 | 0.00 | 0.00 | 0.00 | 50 | 1015.4 |
| 20260503170537 | 15 | 195 | 19.3 | 27.4 | 0.00 | 0.00 | 0.00 | 50 | 1015.5 |
| 20260503150930 | 12 | 192 | 16.1 | 27.4 | 0.00 | 0.00 | 0.00 | 58 | 1016.9 |
| 20260503150427 | 12 | 247 | 14.5 | 20.9 | 0.00 | 0.00 | 0.00 | 54 | 1017.2 |
| 20260503131320 | 8 | 196 | 8.0 | 14.5 | 0.00 | 0.00 | 0.00 | 70 | 1017.3 |
| 20260503130817 | 8 | 196 | 8.0 | 16.1 | 0.00 | 0.00 | 0.00 | 70 | 1017.4 |
| 20260503130315 | 7 | 196 | 12.9 | 16.1 | 0.00 | 0.00 | 0.00 | 72 | 1017.4 |
| 20260503110708 | 3 | 215 | 6.4 | 9.7 | 0.00 | 0.00 | 0.00 | 83 | 1017.1 |
| 20260503110205 | 2 | 196 | 4.8 | 9.7 | 0.00 | 0.00 | 0.00 | 84 | 1017.1 |
| 20260503100132 | 2 | 215 | 4.8 | 6.4 | 0.00 | 0.00 | 0.00 | 83 | 1016.8 |
| 20260503081521 | 3 | 215 | 4.8 | 4.8 | 0.00 | 0.00 | 0.00 | 83 | 1016.9 |
| 20260503081019 | 3 | 210 | 3.2 | 6.4 | 0.00 | 0.00 | 0.00 | 81 | 1017.2 |
| 20260503080514 | 3 | 211 | 8.0 | 9.7 | 0.00 | 0.00 | 0.00 | 82 | 1017.3 |
| 20260503072448 | 3 | 206 | 1.6 | 3.2 | 0.00 | 0.00 | 0.00 | 83 | 1017.0 |
| 20260503071945 | 3 | 202 | 1.6 | 3.2 | 0.00 | 0.00 | 0.00 | 82 | 1017.1 |
| 20260503071442 | 3 | 198 | 4.8 | 6.4 | 0.00 | 0.00 | 0.00 | 81 | 1017.1 |
| 20260503070938 | 2 | 198 | 3.2 | 3.2 | 0.00 | 0.00 | 0.00 | 83 | 1017.0 |
| 20260503070435 | 2 | 208 | 1.6 | 3.2 | 0.00 | 0.00 | 0.00 | 86 | 1017.2 |
| 20260503054849 | 1 | 196 | 0.0 | 0.0 | 0.00 | 0.00 | 0.00 | 93 | 1017.5 |
| 20260503054345 | 1 | 194 | 0.0 | 0.0 | 0.00 | 0.00 | 0.00 | 92 | 1017.4 |
| 20260503053843 | 2 | 194 | 0.0 | 0.0 | 0.00 | 0.00 | 0.00 | 92 | 1017.4 |
| 20260503053341 | 2 | 194 | 0.0 | 0.0 | 0.00 | 0.00 | 0.00 | 92 | 1017.6 |
| 20260503052837 | 2 | 194 | 0.0 | 0.0 | 0.00 | 0.00 | 0.00 | 91 | 1017.6 |
| 20260503052334 | 2 | 193 | 0.0 | 0.0 | 0.00 | 0.00 | 0.00 | 91 | 1017.6 |
| 20260503051830 | 2 | 191 | 0.0 | 0.0 | 0.00 | 0.00 | 0.00 | 90 | 1017.5 |
| 20260503051326 | 2 | 190 | 0.0 | 0.0 | 0.00 | 0.00 | 0.00 | 90 | 1017.7 |
| 20260503050823 | 2 | 190 | 0.0 | 0.0 | 0.00 | 0.00 | 0.00 | 90 | 1017.6 |
| 20260503050320 | 2 | 189 | 0.0 | 0.0 | 0.00 | 0.00 | 0.00 | 89 | 1017.6 |
| 20260503045818 | 2 | 189 | 0.0 | 0.0 | 0.00 | 0.00 | 0.00 | 89 | 1017.5 |
| 20260503045315 | 2 | 190 | 0.0 | 0.0 | 0.00 | 0.00 | 0.00 | 89 | 1017.6 |
| 20260503044811 | 2 | 191 | 0.0 | 0.0 | 0.00 | 0.00 | 0.00 | 88 | 1017.6 |
| 20260503044308 | 2 | 192 | 0.0 | 0.0 | 0.00 | 0.00 | 0.00 | 88 | 1017.7 |
| 20260503043805 | 2 | 191 | 0.0 | 0.0 | 0.00 | 0.00 | 0.00 | 87 | 1017.7 |
| 20260503043302 | 2 | 191 | 0.0 | 0.0 | 0.00 | 0.00 | 0.00 | 88 | 1017.5 |
| 20260503042758 | 2 | 192 | 0.0 | 0.0 | 0.00 | 0.00 | 0.00 | 88 | 1017.6 |
| 20260503042255 | 3 | 191 | 0.0 | 0.0 | 0.00 | 0.00 | 0.00 | 87 | 1017.7 |
| 20260503041751 | 2 | 189 | 0.0 | 0.0 | 0.00 | 0.00 | 0.00 | 87 | 1017.8 |
| 20260503041249 | 3 | 180 | 0.0 | 0.0 | 0.00 | 0.00 | 0.00 | 87 | 1017.8 |
| 20260503040746 | 3 | 185 | 0.0 | 0.0 | 0.00 | 0.00 | 0.00 | 85 | 1017.4 |
| 20260503040244 | 3 | 191 | 0.0 | 0.0 | 0.00 | 0.00 | 0.00 | 84 | 1017.8 |
| 20260503035740 | 3 | 199 | 0.0 | 0.0 | 0.00 | 0.00 | 0.00 | 84 | 1017.6 |
| 20260503035238 | 3 | 199 | 0.0 | 0.0 | 0.00 | 0.00 | 0.00 | 85 | 1017.8 |
| 20260503034735 | 3 | 202 | 0.0 | 0.0 | 0.00 | 0.00 | 0.00 | 86 | 1017.7 |
| 20260503034232 | 3 | 203 | 0.0 | 0.0 | 0.00 | 0.00 | 0.00 | 85 | 1017.8 |
| 20260503033729 | 3 | 204 | 0.0 | 0.0 | 0.00 | 0.00 | 0.00 | 85 | 1017.7 |
| 20260503033226 | 3 | 205 | 0.0 | 0.0 | 0.00 | 0.00 | 0.00 | 82 | 1017.5 |
| 20260503032725 | 3 | 204 | 0.0 | 0.0 | 0.00 | 0.00 | 0.00 | 84 | 1017.8 |
| 20260503032223 | 3 | 204 | 0.0 | 0.0 | 0.00 | 0.00 | 0.00 | 84 | 1017.6 |
| 20260503031720 | 3 | 203 | 0.0 | 0.0 | 0.00 | 0.00 | 0.00 | 83 | 1017.8 |
| 20260503031218 | 3 | 202 | 0.0 | 0.0 | 0.00 | 0.00 | 0.00 | 80 | 1017.7 |
| 20260503030714 | 4 | 202 | 0.0 | 0.0 | 0.00 | 0.00 | 0.00 | 79 | 1017.7 |
| 20260503030210 | 4 | 205 | 0.0 | 0.0 | 0.00 | 0.00 | 0.00 | 77 | 1017.8 |
| 20260503025707 | 4 | 204 | 0.0 | 0.0 | 0.00 | 0.00 | 0.00 | 79 | 1017.8 |
| 20260503025205 | 4 | 203 | 0.0 | 0.0 | 0.00 | 0.00 | 0.00 | 78 | 1017.7 |
| 20260503024701 | 4 | 203 | 0.0 | 0.0 | 0.00 | 0.00 | 0.00 | 78 | 1017.8 |
| 20260503024159 | 4 | 203 | 0.0 | 0.0 | 0.00 | 0.00 | 0.00 | 77 | 1017.7 |
| 20260503023655 | 5 | 203 | 0.0 | 0.0 | 0.00 | 0.00 | 0.00 | 77 | 1017.6 |
| 20260503023152 | 5 | 207 | 0.0 | 0.0 | 0.00 | 0.00 | 0.00 | 77 | 1017.8 |
| 20260503022648 | 5 | 207 | 0.0 | 0.0 | 0.00 | 0.00 | 0.00 | 80 | 1017.6 |
| 20260503022148 | 5 | 207 | 0.0 | 0.0 | 0.00 | 0.00 | 0.00 | 75 | 1017.7 |
| 20260503021645 | 4 | 207 | 0.0 | 0.0 | 0.00 | 0.00 | 0.00 | 72 | 1017.5 |
| 20260503021142 | 4 | 207 | 0.0 | 0.0 | 0.00 | 0.00 | 0.00 | 76 | 1017.5 |
| 20260503020639 | 5 | 207 | 0.0 | 0.0 | 0.00 | 0.00 | 0.00 | 75 | 1017.6 |
| 20260503020136 | 5 | 208 | 0.0 | 0.0 | 0.00 | 0.00 | 0.00 | 73 | 1017.4 |
| 20260503015633 | 5 | 207 | 0.0 | 0.0 | 0.00 | 0.00 | 0.00 | 70 | 1017.6 |
| 20260503015130 | 5 | 207 | 0.0 | 0.0 | 0.00 | 0.00 | 0.00 | 74 | 1017.4 |
| 20260503014626 | 6 | 209 | 0.0 | 0.0 | 0.00 | 0.00 | 0.00 | 72 | 1017.4 |
| 20260503014124 | 6 | 208 | 0.0 | 0.0 | 0.00 | 0.00 | 0.00 | 68 | 1017.4 |
| 20260503013621 | 6 | 216 | 0.0 | 0.0 | 0.00 | 0.00 | 0.00 | 70 | 1017.3 |
| 20260503013119 | 5 | 205 | 0.0 | 0.0 | 0.00 | 0.00 | 0.00 | 71 | 1017.3 |
| 20260503012616 | 6 | 206 | 0.0 | 0.0 | 0.00 | 0.00 | 0.00 | 69 | 1017.2 |
| 20260503012112 | 6 | 208 | 0.0 | 0.0 | 0.00 | 0.00 | 0.00 | 65 | 1016.9 |
| 20260503011609 | 7 | 208 | 0.0 | 0.0 | 0.00 | 0.00 | 0.00 | 61 | 1017.0 |
| 20260503011106 | 7 | 218 | 0.0 | 0.0 | 0.00 | 0.00 | 0.00 | 61 | 1016.9 |
| 20260503010602 | 7 | 231 | 0.0 | 0.0 | 0.00 | 0.00 | 0.00 | 62 | 1016.9 |
| 20260503010100 | 7 | 355 | 0.0 | 0.0 | 0.00 | 0.00 | 0.00 | 62 | 1017.0 |
| 20260503005557 | 7 | 355 | 0.0 | 0.0 | 0.00 | 0.00 | 0.00 | 65 | 1017.0 |
| 20260503005054 | 7 | 355 | 0.0 | 0.0 | 0.00 | 0.00 | 0.00 | 60 | 1017.0 |
| 20260503004550 | 8 | 355 | 0.0 | 0.0 | 0.00 | 0.00 | 0.00 | 58 | 1017.0 |
| 20260503004049 | 8 | 355 | 0.0 | 0.0 | 0.00 | 0.00 | 0.00 | 55 | 1017.0 |
| 20260503003545 | 8 | 355 | 0.0 | 0.0 | 0.00 | 0.00 | 0.00 | 54 | 1016.9 |
| 20260503003042 | 9 | 355 | 0.0 | 0.0 | 0.00 | 0.00 | 0.00 | 53 | 1016.9 |
| 20260503002539 | 9 | 355 | 0.0 | 0.0 | 0.00 | 0.00 | 0.00 | 53 | 1017.0 |
| 20260503002036 | 10 | 355 | 0.0 | 0.0 | 0.00 | 0.00 | 0.00 | 47 | 1017.0 |
| 20260503001532 | 10 | 355 | 0.0 | 0.0 | 0.00 | 0.00 | 0.00 | 47 | 1016.9 |
| 20260503001030 | 10 | 355 | 0.0 | 1.6 | 0.00 | 0.00 | 0.00 | 46 | 1016.9 |
| 20260503000527 | 10 | 355 | 0.0 | 1.6 | 0.00 | 0.00 | 0.00 | 45 | 1016.8 |
| 20260503000024 | 11 | 12 | 4.8 | 6.4 | 0.00 | 0.00 | 0.00 | 44 | 1017.1 |
| 20260502235520 | 11 | 23 | 3.2 | 6.4 | 0.00 | 0.00 | 0.00 | 44 | 1016.8 |
| 20260502235018 | 11 | 52 | 6.4 | 9.7 | 0.00 | 0.00 | 0.00 | 41 | 1016.9 |
| 20260502234514 | 11 | 10 | 4.8 | 9.7 | 0.00 | 0.00 | 0.00 | 40 | 1017.0 |
| 20260502234012 | 11 | 20 | 8.0 | 11.3 | 0.00 | 0.00 | 0.00 | 39 | 1016.9 |
| 20260502233512 | 11 | 25 | 8.0 | 12.9 | 0.00 | 0.00 | 0.00 | 38 | 1016.9 |
| 20260502233010 | 11 | 16 | 9.7 | 11.3 | 0.00 | 0.00 | 0.00 | 39 | 1017.1 |
| 20260502232506 | 11 | 23 | 6.4 | 12.9 | 0.00 | 0.00 | 0.00 | 40 | 1016.9 |
| 20260502232003 | 11 | 20 | 9.7 | 14.5 | 0.00 | 0.00 | 0.00 | 39 | 1017.1 |
| 20260502231500 | 11 | 11 | 3.2 | 12.9 | 0.00 | 0.00 | 0.00 | 42 | 1016.8 |
| 20260502230958 | 11 | 46 | 4.8 | 16.1 | 0.00 | 0.00 | 0.00 | 41 | 1016.9 |